Temp
53 51 52 51 52 52 52 53 54 54 54 54 57 57 57 57 57 60 59 60 61 62
54 52 51 52 51 52 52 55 55 54 53 54 56 56 56 55 55 58 60 61 60 62
53 55 55 52 53 53 53 53 53 52 53 55 55 56 55 55 57 57 58 60 61 61
52 53 54 53 53 53 53 53 52 53 53 53 52 53 53 55 56 56 57 60 62 59
53 52 52 52 53 54 53 53 53 53 52 51 51 53 53 53 55 56 57 59 60 59
51 51 50 52 53 55 54 53 52 52 49 50 51 52 53 55 55 57 59 59 59 58
50 49 51 53 54 54 54 52 52 52 50 51 52 52 53 55 56 59 60 59 59 58
52 52 52 53 53 53 52 52 52 52 52 51 52 54 54 57 57 58 57 57 58 57
52 52 52 51 50 50 50 50 51 51 51 50 51 55 57 56 55 55 55 54 54 55
51 50 49 49 48 47 46 48 49 49 49 48 50 54 57 56 54 53 52 52 51 51
48 47 47 47 46 46 47 47 47 47 47 49 51 54 56 54 52 51 51 51 50 50
46 45 45 45 45 46 46 46 45 48 50 50 52 54 53 52 50 48 48 49 50 50
46 45 44 45 45 47 46 45 48 48 49 50 49 51 52 50 48 46 45 47 50 51
44 44 45 45 46 45 44 45 48 47 48 48 49 49 51 51 48 47 47 48 48 49
MSLP
1013.06 1012.72 1012.34 1011.93 1011.53 1011.23 1010.85 1010.28 1009.76 1009.35 1008.98 1008.48 1008.21 1007.90 1007.52 1006.93 1006.25 1005.62 1005.22 1004.73 1004.85 1004.92
1012.74 1012.23 1011.76 1011.18 1010.81 1010.52 1010.08 1009.71 1009.27 1008.92 1008.30 1007.79 1007.39 1007.10 1006.84 1006.37 1005.75 1005.15 1004.20 1003.70 1003.97 1004.07
1012.36 1011.90 1011.26 1010.69 1010.33 1009.92 1009.49 1009.06 1008.67 1008.15 1007.49 1006.89 1006.57 1006.24 1005.94 1005.30 1004.85 1004.51 1003.98 1003.54 1003.06 1003.30
1012.04 1011.40 1010.93 1010.45 1009.89 1009.35 1008.88 1008.50 1008.05 1007.35 1006.69 1006.31 1005.99 1005.39 1004.93 1004.29 1003.74 1003.48 1003.07 1002.82 1002.44 1002.76
1011.55 1011.01 1010.52 1009.95 1009.33 1008.72 1008.17 1007.76 1007.44 1006.75 1006.06 1005.79 1005.19 1004.44 1003.92 1003.25 1002.80 1002.39 1002.06 1001.93 1002.00 1002.44
1011.11 1010.49 1009.92 1009.32 1008.56 1007.88 1007.24 1006.82 1006.39 1005.74 1005.51 1004.73 1004.01 1003.33 1002.64 1001.97 1001.39 1000.75 1000.63 1000.83 1001.27 1002.14
1010.51 1009.89 1009.25 1008.51 1007.83 1007.12 1006.61 1006.13 1005.50 1004.93 1004.49 1003.70 1002.96 1002.19 1001.40 1000.69 1000.02 999.59 999.74 1000.29 1000.95 1001.83
1009.89 1009.21 1008.63 1007.89 1007.25 1006.75 1006.17 1005.73 1004.71 1003.76 1003.10 1002.40 1001.83 1000.81 1000.21 999.26 998.86 998.94 999.64 1000.42 1001.22 1002.14
1009.36 1008.69 1008.08 1007.57 1007.21 1006.50 1005.85 1004.96 1003.94 1002.84 1001.96 1001.44 1000.82 1000.11 999.34 998.94 999.12 998.90 999.94 1001.05 1002.35 1003.41
1009.38 1008.84 1008.05 1007.54 1006.98 1006.20 1005.40 1004.43 1003.19 1001.94 1001.06 1000.18 999.93 999.64 999.04 999.42 999.20 999.55 1001.15 1002.05 1003.27 1003.64
1009.34 1008.63 1007.90 1007.31 1006.45 1005.76 1005.07 1003.73 1002.42 1001.27 999.75 998.20 997.30 998.83 999.20 999.50 999.69 1001.23 1002.37 1003.20 1004.57 1005.27
1009.30 1008.45 1007.85 1007.22 1006.17 1005.71 1004.97 1003.28 1001.71 999.69 999.33 998.42 998.10 998.82 1000.16 1000.46 1001.51 1002.62 1004.16 1005.39 1006.40 1006.95
1009.08 1008.29 1007.74 1007.05 1006.08 1005.77 1004.71 1003.72 1002.32 1000.85 1001.07 1000.94 1000.96 1000.76 1000.87 1001.85 1002.94 1004.13 1005.94 1007.73 1008.54 1009.01
1008.72 1007.94 1007.56 1006.66 1006.05 1005.58 1004.47 1003.91 1003.08 1002.11 1002.70 1002.82 1002.75 1002.62 1002.81 1003.65 1004.59 1005.83 1007.12 1008.61 1010.00 1011.04
Wind_Speed
8 5 7 7 6 6 8 9 11 12 12 10 12 13 13 12 12 11 9 11 10 9
9 8 6 8 6 6 8 8 12 14 14 12 13 12 13 11 13 13 11 11 11 10
8 12 11 7 10 10 9 10 13 15 13 13 12 13 13 13 13 13 11 10 12 11
9 9 10 10 9 10 12 13 15 15 14 10 13 15 14 15 14 15 14 14 14 9
11 8 10 10 12 14 14 12 14 14 11 14 15 15 15 15 14 16 17 15 12 11
11 11 9 12 15 15 16 14 14 14 12 17 16 15 16 16 16 17 15 10 12 14
11 9 11 13 15 15 16 16 16 14 14 14 15 16 15 15 14 14 10 14 15 16
12 12 12 14 14 15 17 14 16 16 14 13 12 11 9 13 4 10 13 13 13 14
14 13 14 11 14 16 16 18 16 16 14 14 10 16 11 7 12 14 16 18 17 20
16 16 15 14 16 17 18 18 19 17 17 15 11 14 5 18 12 19 18 20 20 19
14 16 16 16 16 17 16 19 17 18 17 17 12 20 18 28 19 18 19 21 19 23
14 16 16 16 16 14 15 17 17 15 6 16 17 33 29 26 21 23 21 19 18 22
14 14 14 15 15 13 13 14 10 13 13 23 18 31 37 28 18 24 19 18 21 32
13 13 12 13 12 11 13 9 10 17 13 15 19 25 36 35 18 17 17 16 15 16
Wind_Direction
269 255 259 261 276 283 292 293 303 297 289 282 288 283 283 286 288 271 251 249 239 230
307 288 277 281 278 285 284 293 300 297 287 283 276 273 275 267 270 279 276 262 239 229
306 306 298 294 294 290 287 299 306 297 286 282 283 277 278 268 263 259 257 256 250 228
300 294 300 297 295 300 301 299 298 294 291 299 296 285 276 267 266 269 262 255 239 211
297 297 299 297 301 295 293 294 293 290 292 301 285 280 278 274 266 254 246 238 225 148
298 296 295 297 293 294 295 302 298 297 299 290 282 275 273 267 261 246 231 209 153 146
294 285 293 296 302 305 309 303 302 294 274 274 277 274 258 288 256 231 195 153 145 143
293 294 296 301 305 312 304 302 295 294 293 278 283 280 288 278 195 143 142 132 130 121
299 299 301 320 325 313 318 308 300 299 291 293 285 286 307 91 123 112 110 105 103 107
325 323 318 318 317 313 310 308 303 302 297 285 267 266 190 123 121 100 102 104 104 96
312 309 311 314 312 310 311 308 306 301 290 283 232 201 139 110 96 96 95 96 104 106
310 307 309 308 305 313 313 310 310 305 66 61 83 109 108 100 96 89 86 86 100 104
301 298 300 301 303 314 309 311 323 53 59 81 83 95 98 97 99 93 94 96 91 98
299 298 297 296 310 315 312 316 61 67 61 75 85 84 92 94 91 99 101 96 96 97